カタログに戻る

STARLINK-30932

運用中通信VLEO
NORAD 58523·PAYLOAD·🇺🇸 United States

打ち上げ Dec 7, 2023 から Cape Canaveral Space Force Station

Loading…

次のパス (今後24時間)

TLE

最新Source: CelesTrak SupGP

元期: Sep 14, 2026, 20:38 UTC

1 58523C 23191R   26257.86020833 -.00012935  00000+0 -46861-3 0  2577
2 58523  43.0011 114.8470 0001299 269.1086 157.6635 15.27577916    16

AllMySatでSTARLINK-30932をリアルタイム追跡

Download on the App Store